Location: Zagreb
(45.8000°N, 16.0000°E)
Time: 20:14:53
(UTC+01:00)

DX 1 - Pass Details

Date: 30 October 2020
Orbit: 619 x 630 km, 98.5° (Epoch: 01 December)

Event Time Altitude Azimuth Distance (km) Brightness Sun altitude
Rises 17:41:07 0° 24° (NNE) 2,909 ? -10.3°
Reaches altitude 10° 17:43:33 10° 36° (NE) 1,999 ? -10.7°
Maximum altitude 17:47:20 29° 96° (E) 1,161 ? -11.4°
Drops below altitude 10° 17:51:06 10° 157° (SSE) 1,990 ? -12.0°
Sets 17:53:31 0° 168° (SSE) 2,893 ? -12.4°
